Showing default

HAKUTO-R, 62717

Orbit data source: Space-Track

HAKUTO-R, 62717 is a payload satellite owned by iSpace (JP) in HEO that was launched on Wed, 15 Jan 2025 UTC via an FALCON 9 launch vehicle from the Air Force Eastern Test Range (AFETR). Payloads include a variety of satellites, spacecraft, and rockets equipped with specific instruments for various scientific and technological missions. These include communications satellites like Starlink; space stations such as the ISS; scientific satellites like the Hubble; Earth observation satellites from companies like Planet Labs, Umbra, and HawkEye 360; GPS; miniature CubeSats for education and research; and military/defense satellites.

Loading next visibility...
HAKUTO-R details
Identifier
62717, 2025-010B
Orbit
HEO
Last TLE update1 month ago
Origin
Flag of JPiSpace (JP / JPN)
ManufacturerISPACE/ADSL
MissionOperational spacecraft
Bus & MotorHAKUTO-R, AOCS
Mass1,050 kg wet, 340 kg dry
Launch date (UTC)
2025-01-15 (1 month ago)
Launch vehicle
FALCON 9
Launch site
Air Force Eastern Test Range (AFETR)
Object type
Payload
Rocket body
Debris
Shape & HBRUnknown
Radar Cross SectionRCS unknown

Expand to show TLE details & history

TLE from 1 month ago
0 HAKUTO-R
1 62717U 25010B   25015.31796730 -.00038243  31373-4  00000-0 0  9992
2 62717  35.1700   0.1839 9650900 345.5700   0.7230  0.10673359    01
Epoch: 2025-01-15T07:37Z
Definitive object data (Epoch: 2025-01-15T07:37:52.374Z)
Latitude25.60567°
Longitude-93.6906°
Altitude59,588.328 km
Speed3.156 km/s
True Right ascension09h 03m 09s
True Declination25° 35' 28"
Sunlit
Object was in daylight at TLE epoch
Visualization TLE readout
Latitude8.5838°
Longitude-62.21991°
Altitude359,956.486 km
Speed0.23 km/s
Apparent Right ascension11h 06m 16s
Apparent Declination8° 00' 04"
Sunlit
Object is in daylight
Visualization observer readout
Local Sidereal Time15:18:58
Azimuth258.486° W
Elevation25.6°
Doppler factor1
Orbital elements
Apogee altitude362,541.96 km
Perigee altitude175.762 km
Semi-major axis187,736.998 km
Eccentricity0.96509
Inclination35.17°
RAAN0.1839°
Arg. of periapsis345.57°
True anomaly91.19139°
Mean anomaly0.723°
Eccentric anomaly15.49915°
Mean motion0.02668 °/min
BSTARUnknown
Orbital period13492.24 mins
Loading maneuver chart data...
Loading historical data...
Loading historical data...
Loading historical data...
Loading historical data...
Loading historical data...
Loading historical data...
Loading historical data...
Other satellites on launch #10 in the year 2025 (2025-01-15 UTC)

HAKUTO-R Visibility forecast

Observer location: undefined°, undefined

Span
Click to sort rows by Start time (UTC) header in descending order
Start Az.
Max El. time (UTC)
Max El. Az.
Max El.
End time (UTC)
End Az.
80 mins2025-02-16 12:32:25.384Z258.485° W2025-02-16 12:32:25.384Z258.485° W23.368°2025-02-16 13:52:25.384Z271.75° WNW
574 mins2025-02-17 02:58:25.384Z89.423° E2025-02-17 08:25:25.384Z180.106° SSW39.99°2025-02-17 12:32:25.384Z256.756° W
|